Nice, France

5:25 AM CEST on August 29, 2016 (GMT +0200)
Nice-Cote d'Azur

Weather History for LFMN - February, 2013

Change the Weather History Date:

Friday, February 8, 2013

  Actual Average Record
Temperature  
Mean Temperature 44 °F -  
Max Temperature 51 °F 56 °F 60 °F (2000)
Min Temperature 37 °F 41 °F 35 °F (2011)
Degree Days  
Heating Degree Days 21    
Moisture  
Dew Point 15 °F    
Average Humidity 32    
Maximum Humidity 57    
Minimum Humidity 9    
Precipitation  
Precipitation 0.00 in 0.10 in - ()
Sea Level Pressure  
Sea Level Pressure 29.78 in    
Wind  
Wind Speed 8 mph ()    
Max Wind Speed 18 mph    
Max Gust Speed 23 mph    
Visibility 6.5 miles    
Events      
Averages and records for this station are not official NWS values.
T = Trace of Precipitation, MM = Missing Value Source: Averaged Metar Reports

Daily Weather History Graph

Daily Weather History Graph

Search for Another Location

Airport or City:

Trip Planner

Search our weather history database for the weather conditions in past years. The results will help you decide how hot, cold, wet, or windy it might be!

Date:

Astronomy

Feb. 08, 2013 Rise Set
Actual Time 7:39 AM CET 5:51 PM CET
Civil Twilight 7:09 AM CET 6:21 PM CET
Nautical Twilight 6:35 AM CET 6:55 PM CET
Astronomical Twilight 6:02 AM CET 7:29 PM CET
Moon 5:57 AM CET (2/8) 4:05 PM CET (2/8)
Length of Visible Light 11h 12m
Length of Day
10h 12m
Waning Crescent, 5% of the Moon is Illuminated
Feb 8
Waning Crescent
Feb 10
New
Feb 17
First Quarter
Feb 25
Full
Mar 4
Last Quarter

Hourly Weather History & Observations

Time (CET) Temp. Windchill Dew Point Humidity Pressure Visibility Wind Dir Wind Speed Gust Speed Precip Events Conditions
12:00 AM 44.6 °F 41.4 °F 8.6 °F 23% 29.77 in 6.2 mi North 5.8 mph - N/A   Mostly Cloudy
12:30 AM 44.6 °F 41.4 °F 6.8 °F 21% 29.74 in 6.2 mi NNW 5.8 mph - N/A   Mostly Cloudy
1:00 AM 45 °F - 6 °F 9% 29.78 in 25 mi North 3.5 mph - -   Mostly Cloudy
1:00 AM 44.6 °F 43.1 °F 6.8 °F 21% 29.77 in 6.2 mi Variable 3.5 mph - N/A   Mostly Cloudy
1:30 AM 44.6 °F 41.4 °F 6.8 °F 21% 29.77 in 6.2 mi NW 5.8 mph - N/A   Mostly Cloudy
2:00 AM 42.8 °F 37.5 °F 6.8 °F 23% 29.77 in 6.2 mi NW 9.2 mph - N/A   Mostly Cloudy
2:30 AM 42.8 °F 37.5 °F 6.8 °F 23% 29.77 in 6.2 mi NNW 9.2 mph - N/A   Scattered Clouds
3:00 AM 41.0 °F 34.7 °F 6.8 °F 24% 29.77 in 6.2 mi NNW 10.4 mph - N/A   Scattered Clouds
3:30 AM 41.0 °F 34.3 °F 6.8 °F 24% 29.77 in 6.2 mi NNW 11.5 mph - N/A   Partly Cloudy
4:00 AM 39.2 °F 32.0 °F 6.8 °F 26% 29.77 in 6.2 mi North 11.5 mph - N/A   Partly Cloudy
4:30 AM 39.2 °F 31.6 °F 6.8 °F 26% 29.74 in 6.2 mi NNW 12.7 mph - N/A   Partly Cloudy
5:00 AM 39.2 °F 32.5 °F 6.8 °F 26% 29.74 in 6.2 mi North 10.4 mph - N/A   Partly Cloudy
5:30 AM 39.2 °F 32.0 °F 6.8 °F 26% 29.74 in 6.2 mi NNW 11.5 mph - N/A   Partly Cloudy
6:00 AM 39.2 °F 33.0 °F 5.0 °F 24% 29.77 in 6.2 mi NNW 9.2 mph - N/A   Scattered Clouds
6:30 AM 39.2 °F 32.5 °F 5.0 °F 24% 29.74 in 6.2 mi NNW 10.4 mph - N/A   Scattered Clouds
7:00 AM 39 °F - 5 °F 12% 29.77 in 25 mi NNW 10.4 mph - -   Partly Cloudy
7:00 AM 39.2 °F 32.5 °F 5.0 °F 24% 29.74 in 6.2 mi NNW 10.4 mph - N/A   Scattered Clouds
7:30 AM 39.2 °F 32.0 °F 5.0 °F 24% 29.77 in 6.2 mi NNW 11.5 mph - N/A   Scattered Clouds
8:00 AM 39.2 °F 32.5 °F 5.0 °F 24% 29.77 in 6.2 mi North 10.4 mph - N/A   Scattered Clouds
8:30 AM 41.0 °F 36.4 °F 5.0 °F 23% 29.77 in 6.2 mi NNW 6.9 mph - N/A   Scattered Clouds
9:00 AM 42.8 °F 36.6 °F 6.8 °F 23% 29.77 in 6.2 mi NNW 11.5 mph - N/A   Scattered Clouds
9:30 AM 46.4 °F 39.8 °F 17.6 °F 32% 29.77 in 6.2 mi NW 16.1 mph - N/A   Scattered Clouds
10:00 AM 46.4 °F 41.1 °F 5.0 °F 18% 29.77 in 6.2 mi NNW 11.5 mph - N/A   Scattered Clouds
10:30 AM 46.4 °F 41.9 °F 8.6 °F 22% 29.77 in 6.2 mi NNW 9.2 mph - N/A   Scattered Clouds
11:00 AM 44.6 °F 40.7 °F 6.8 °F 21% 29.77 in 6.2 mi NNW 6.9 mph - N/A   Scattered Clouds
11:30 AM 46.4 °F 42.9 °F 8.6 °F 22% 29.77 in 6.2 mi NW 6.9 mph - N/A   Scattered Clouds
12:30 PM 48.2 °F - 21.2 °F 34% 29.77 in 6.2 mi SW 4.6 mph - N/A   Scattered Clouds
1:00 PM 51 °F - 24 °F 22% 29.77 in 25 mi South 3.5 mph - -   Scattered Clouds
1:00 PM 51.8 °F - 23.0 °F 33% 29.77 in 6.2 mi Variable 3.5 mph - N/A   Scattered Clouds
1:30 PM 50.0 °F - 19.4 °F 30% 29.74 in 6.2 mi SW 4.6 mph - N/A   Scattered Clouds
2:00 PM 48.2 °F - 19.4 °F 32% 29.74 in 6.2 mi West 4.6 mph - N/A   Scattered Clouds
2:30 PM 48.2 °F - 15.8 °F 27% 29.74 in 6.2 mi SW 8.1 mph 23.0 mph N/A   Scattered Clouds
3:00 PM 46.4 °F 40.1 °F 23.0 °F 40% 29.74 in 6.2 mi SW 15.0 mph - N/A   Mostly Cloudy
3:30 PM 44.6 °F 36.9 °F 30.2 °F 57% 29.77 in 6.2 mi West 18.4 mph - N/A   Mostly Cloudy
4:00 PM 44.6 °F 37.8 °F 28.4 °F 53% 29.77 in 6.2 mi SW 15.0 mph - N/A   Mostly Cloudy
5:00 PM 42.8 °F 40.1 °F 24.8 °F 49% 29.80 in 6.2 mi Variable 4.6 mph - N/A   Mostly Cloudy
5:18 PM 42.8 °F 40.1 °F 26.6 °F 53% 29.80 in 6.2 mi WSW 4.6 mph - N/A   Mostly Cloudy
5:30 PM 44.6 °F 40.7 °F 26.6 °F 49% 29.80 in 6.2 mi West 6.9 mph - N/A   Mostly Cloudy
6:00 PM 42.8 °F 36.2 °F 26.6 °F 53% 29.77 in 6.2 mi West 12.7 mph - N/A   Mostly Cloudy
6:30 PM 42.8 °F 37.5 °F 26.6 °F 53% 29.80 in 6.2 mi WSW 9.2 mph - N/A   Mostly Cloudy
7:00 PM 44 °F - 22 °F 28% 29.82 in 19 mi West 8.1 mph - -   Scattered Clouds
7:00 PM 44.6 °F 39.7 °F 23.0 °F 43% 29.80 in 6.2 mi WSW 9.2 mph - N/A   Mostly Cloudy
7:30 PM 44.6 °F 40.2 °F 23.0 °F 43% 29.80 in 6.2 mi NW 8.1 mph - N/A   Mostly Cloudy
8:00 PM 42.8 °F 38.6 °F 19.4 °F 39% 29.83 in 6.2 mi NNW 6.9 mph - N/A   Mostly Cloudy
8:30 PM 42.8 °F 38.0 °F 21.2 °F 42% 29.83 in 6.2 mi NW 8.1 mph - N/A   Mostly Cloudy
9:00 PM 42.8 °F 36.6 °F 21.2 °F 42% 29.83 in 6.2 mi NW 11.5 mph - N/A   Mostly Cloudy
9:30 PM 41.0 °F 34.3 °F 21.2 °F 45% 29.83 in 6.2 mi NNW 11.5 mph - N/A   Mostly Cloudy
10:00 PM 41.0 °F 34.3 °F 21.2 °F 45% 29.83 in 6.2 mi NNW 11.5 mph - N/A   Mostly Cloudy
10:30 PM 39.2 °F 31.6 °F 21.2 °F 49% 29.86 in 6.2 mi NNW 12.7 mph - N/A   Scattered Clouds
11:00 PM 39.2 °F 33.6 °F 21.2 °F 49% 29.86 in - NNW 8.1 mph - N/A   Clear
11:30 PM 39.2 °F 32.0 °F 21.2 °F 49% 29.86 in - NNW 11.5 mph - N/A   Clear